• Processing (Info)

  • MPEC 2014-K45 : 2014 KM22

    The following Minor Planet Electronic Circular may be linked-to from your own Web pages, but must not otherwise be redistributed electronically.

    A form allowing access to any MPEC is at the bottom of this page.


    Read MPEC 2014-K44 Read MPEC 2014-K46


    M.P.E.C. 2014-K45                                Issued 2014 May 26, 01:59 UT
    
         The Minor Planet Electronic Circulars contain information on unusual
             minor planets and routine data on comets.  They are published
       on behalf of Commission 20 of the International Astronomical Union by the
              Minor Planet Center, Smithsonian Astrophysical Observatory,
                              Cambridge, MA 02138, U.S.A.
    
                 Prepared using the Tamkin Foundation Computer Network
    
                                  MPC@CFA.HARVARD.EDU
                URL https://www.minorplanetcenter.net/    ISSN 1523-6714
    
                                       2014 KM22
    
    Observations:
         K14K22M* C2014 05 20.39301 15 21 00.563-16 05 24.25         21.1 wLEK045F51
         K14K22M  C2014 05 20.40431 15 21 06.746-16 05 10.41         20.6 wLEK045F51
         K14K22M  C2014 05 20.41560 15 21 12.929-16 04 56.49         20.8 wLEK045F51
         K14K22M _C2014 05 21.50930415 32 36.675-15 40 31.05         20.6 RtEK045568
         K14K22M _C2014 05 21.51055915 32 37.408-15 40 29.08         20.4 RtEK045568
         K14K22M _C2014 05 21.51181315 32 38.142-15 40 27.13         20.5 RtEK045568
         K14K22M KC2014 05 26.00795 16 24 08.78 -13 27 55.5                qEK045J95
         K14K22M KC2014 05 26.03547 16 24 27.19 -13 26 57.2                qEK045J95
         K14K22M KC2014 05 26.05335 16 24 39.04 -13 26 17.5          20.5 RqEK045J95
    
    Observer details:
    568 Mauna Kea.  Observers R. J. Wainscoat, L. Wells.  Measurers M. Micheli,
        R. J. Wainscoat, B. Bolin.  3.6-m Canada-France-Hawaii Telescope + CCD.
    F51 Pan-STARRS 1, Haleakala.  Observers N. Primak, A. Schultz, T. Goggia,
        M. Willman.  Measurer PS1 Science Consortium.  1.8-m Ritchey-Chretien
        + CCD.
    J95 Great Shefford.  Observer P. Birtwhistle.  0.40-m f/6.0 Schmidt-Cassegrain
        + CCD.
    
    Orbital elements:
    2014 KM22                                                Earth MOID = 0.0473 AU
    Epoch 2014 May 23.0 TT = JDT 2456800.5                  MPC
    M 356.62695              (2000.0)            P               Q
    n   0.48643145     Peri.   12.57617     -0.36351615     +0.93088420
    a   1.6012345      Node   236.11811     -0.85844766     -0.34981673
    e   0.3379675      Incl.    2.49931     -0.36183370     -0.10527515
    P   2.03           H   26.6           G   0.15           U   8
    Residuals in seconds of arc
    140520 F51  0.2+  0.0     140521 568  0.1+  0.3-    140526 J95  0.2-  0.1+
    140520 F51  0.0   0.1+    140521 568  0.1+  0.3-    140526 J95  0.7+  0.5-
    140520 F51  0.2-  0.0     140521 568  0.0   0.4-    140526 J95  0.5-  0.4+
    
    Ephemeris:
    2014 KM22                a,e,i = 1.60, 0.34, 2                   q = 1.0601
    Date    TT    R. A. (2000) Decl.     Delta      r     Elong.  Phase     V
    2014 04 26    13 10 25.4 -17 59 58   0.1063  1.1089   164.3    14.2    22.8
    ...
    2014 05 11    14 04 59.5 -17 48 56   0.06827 1.0758   164.4    14.6    21.7
    ...
    2014 05 19    15 07 06.0 -16 30 10   0.05439 1.0654   171.1     8.4    21.0
    ...
    2014 05 25    16 12 11.4 -13 59 47   0.04871 1.0612   173.0     6.7    20.7
    2014 05 26    16 24 02.4 -13 25 30   0.04827 1.0608   171.7     7.9    20.7
    2014 05 27    16 35 59.8 -12 48 56   0.04798 1.0604   170.1     9.4    20.8
    ...
    2014 06 02    17 45 34.5 -08 42 48   0.04947 1.0605   159.1    20.0    21.2
    ...
    2014 06 10    18 57 44.3 -03 53 07   0.05874 1.0654   148.0    30.3    21.9
    ...
    2014 06 25    20 05 26.6 +00 01 01   0.08831 1.0893   144.2    33.1    22.9
    
    A. U. Tomatic                (C) Copyright 2014 MPC           M.P.E.C. 2014-K45
    

    Read MPEC 2014-K44 Read MPEC 2014-K46


    MPEC number:

    Enter an MPEC number in one of the following forms:

    • 1997-B01 (the full form)
    • J97B01 (the packed version of the full form)
    • B01 (the abbreviated form)